Flag for Venezuela Weather past 2 weeks in Barquisimeto, Venezuela

Now
73 °F

Partly cloudy.


Feels Like: 72 °F
Forecast: 70 / 92 °F
Wind: 7 mph from Southeast

Location: Barquisimeto Airport

Current Time: Aug 29, 2015 at 4:51:29 AM

Latest Report: Aug 29, 2015 at 1:30 AM


Visibility: N/A

Pressure: 30.01 "Hg (28.10 "Hg at 569m altitude)

Humidity: 89%

Dew point: 70 °F

Location of BarquisimetoLocation

Historic Weather in Barquisimeto — Graph

°F

Barquisimeto temperature yesterday

Maximum temperature yesterday: 88 °F (at 3:30 PM)
Minimum temperature yesterday: 72 °F (at 1:30 AM)
Average temperature yesterday: 79 °F

Past Weeks' High & Low Weather Summary

 TemperatureHumidityPressure
High91 °F (Aug 26, 2:30 PM)100% (Aug 20, 6:30 AM)30.07 "Hg (Aug 20, 6:30 AM)
Low68 °F (Aug 23, 6:30 AM)29% (Aug 18, 1:30 PM)29.89 "Hg (Aug 22, 3:30 PM)
Average78 °F69%29.99 "Hg
* Reported Aug 14 1:30 AM — Aug 29 1:30 AM, Barquisimeto, Weather by CustomWeather, © 2015

Note: Actual official high and low records may vary slightly from our data, if they occured in-between our weather recording intervals... More about our weather records

Advertising

Barquisimeto weather history for previous 24 hours

 ConditionsComfort  
Time TempWeatherWind HumidityBarometerVisibility
1:30 AM
Sat, Aug 29
73 °FPartly cloudy.7 mph89%30.01 "HgN/A
10:30 PM
Fri, Aug 28
75 °FPassing clouds.7 mph83%30.04 "HgN/A
9:30 PM75 °FPassing clouds.9 mph78%30.01 "HgN/A
8:30 PM77 °FPartly cloudy.6 mph74%29.98 "HgN/A
7:30 PM79 °FPassing clouds.9 mph70%29.98 "HgN/A
6:30 PM81 °FPassing clouds.10 mph62%29.95 "HgN/A
5:30 PM82 °FBroken clouds.7 mph58%29.95 "HgN/A
4:30 PM86 °FBroken clouds.9 mph49%29.95 "HgN/A
3:30 PM88 °FBroken clouds.10 mph46%29.95 "HgN/A
2:30 PM86 °FBroken clouds.9 mph49%29.98 "HgN/A
1:30 PM86 °FBroken clouds.7 mph49%29.98 "HgN/A
12:30 PM84 °FBroken clouds.14 mph51%30.01 "HgN/A
11:30 AM84 °FPartly sunny.15 mph51%30.04 "HgN/A
10:30 AM82 °FScattered clouds.16 mph55%30.04 "HgN/A
9:30 AM81 °FScattered clouds.15 mph58%30.04 "HgN/A
8:30 AM77 °FScattered clouds.8 mph65%30.04 "HgN/A
7:30 AM73 °FPartly sunny.7 mph74%30.01 "HgN/A
6:30 AM72 °FPartly sunny.7 mph78%29.98 "HgN/A
5:30 AM72 °FFog.9 mph78%29.98 "Hg1 mi
4:30 AM72 °FFog.10 mph83%30.01 "Hg2 mi
Weather by CustomWeather, © 2015

See weather overviewHow to use our weather pages